Regional Weather Roundup
Issued by NWS Newport/Morehead, NC

Current Version | Previous Version | Graphics & Text | Print | Product List | Glossary On
Versions: 1 2 3 4 5 6 7 8 9 10 11 12 13 14 15 16 17 18 19 20 21 22 23 24 25 26 27 28 29 30 31 32 33 34 35 36 37 38 39 40 41 42 43 44 45 46 47 48 49 50
000 ASUS42 KMHX 100413 RWRMHX WEATHER ROUNDUP FOR EASTERN NORTH CAROLINA NATIONAL WEATHER SERVICE NEWPORT/MOREHEAD CITY NC 1100 PM EST FRI DEC 09 2016 NOTE: "FAIR" INDICATES FEW OR NO CLOUDS BELOW 12,000 FEET WITH NO SIGNIFICANT WEATHER AND/OR OBSTRUCTIONS TO VISIBILITY NCZ015>017-031-032-045>047-102-103-100500- NORTH COAST CITY SKY/WX TMP DP RH WIND PRES REMARKS EDENTON NOT AVBL ELIZABETH CITY CLEAR 27 18 69 W8 30.44R KITTY HAWK CLEAR 37 24 59 NW8 30.41S MANTEO CLEAR 37 18 46 N9 30.43S $$ NCZ045>047-081-094-103-104-100500- CENTRAL COAST CITY SKY/WX TMP DP RH WIND PRES REMARKS FRISCO CLEAR 39 20 46 VRB6 30.42S $$ NCZ095-097-098-100-101-100500- SOUTHERN COAST CITY SKY/WX TMP DP RH WIND PRES REMARKS BEAUFORT CLEAR 35 24 64 N8 30.45S CEDAR ISLAND NOT AVBL JACKSONVILLE CLEAR 30 22 72 W3 30.47R PINEY ISLAND NOT AVBL WILMINGTON CLEAR 29 24 82 CALM 30.48R $$ NCZ011>013-027>030-043-044-078>080-089-090>093-098-100500- COASTAL PLAIN CITY SKY/WX TMP DP RH WIND PRES REMARKS AHOSKIE CLEAR 25 19 78 CALM 30.46S CLINTON CLEAR 28 23 82 CALM 30.49R ELIZABETHTOWN CLEAR 29 24 81 CALM 30.48S GOLDSBORO CLEAR 32 15 51 NW5 30.46R GREENVILLE CLEAR 28 27 93 CALM 30.46R HAVELOCK CLEAR 34 21 59 NW5 30.46R KENANSVILLE CLEAR 25 21 86 CALM 30.48R KINSTON CLEAR 26 22 88 CALM 30.47R NEW BERN CLEAR 29 21 72 CALM 30.47R RICHLANDS CLEAR 23 21 92 CALM 30.48R ROCKY MOUNT CLEAR 29 17 61 NW6 30.47S WASHINGTON N/A 26 20 79 CALM 30.46R WHITEVILLE CLEAR 29 26 86 CALM 30.47S $$ AMZ130-135-150-152-154-156-158-170-250-252-270-ANZ085-086-088-633-658-670-100500- MARINE OBSERVATIONS STATION/POSITION TIME TEMP WIND PRES WAVE SWELL AIR SEA DIR/SP/G HT/PER HT/PER (UTC) (F) (DEG/KT/KT) (MB) (FT/S) (FT/S) CHESAPEAKE LIGHT NOT AVBL 64 E VA BEACH 0350 41 58 330/ 17/ 25 1028.5 6/ 6 DUCK 0348 37 51 300/ 12/ 15 1029.8 2 E DUCK NOT AVBL OREGON INLET 0348 330/ 9/ 12 N/A 13E OREGON INLT NOT AVBL HATTERAS CG 0348 40 54 360/ 14/ 18 1029.7 DIAMOND BUOY 0350 42 77 10/ 16/ 21 1029.8 5/ 8 3/ 8 CAPE LOOKOUT 0400 38 350/ 9/ 11 1030.6 BEAUFORT LAB 0348 36 50 320/ 6/ 7 1030.1 30 SE NEW RVR IN 0308 43 69 360/ 12/ 21 1030.6 30 SE NEW RVR IN 0343 69 N/A 3/ 4 27 SE WRIGHTSVLE 0308 43 68 350/ 14/ 25 1030.6 5 SE WRIGHTSVLE 0308 38 60 10/ 16/ 29 1030.6 225 S CAPE HAT 0350 58 73 360/ 14/ 17 1026.8 6/ 8 3/ 8 41 SE CHARLESTON 0350 49 72 360/ 16/ 23 1029.9 4/ 5 $$

USA.gov is the U.S. government's official web portal to all federal, state and local government web resources and services.